KE0BZR Weather Reports


Display with metric or nautical units.
time (UTC)temp
F
wind
direction
speed
MPH
gust
MPH
rain 1hr
in
rain 24hr
in
rain mn
in
humidity
%
barometer
mb
20220524161554 44 72 1.0 6.0 0.00 0.06 0.00 85 1012.6
20220524160053 44 90 1.0 5.0 0.00 0.06 0.00 85 1012.7
20220524154555 44 69 0.0 4.0 0.00 0.06 0.00 85 1012.8
20220524153054 44 360 0.0 5.0 0.00 0.06 0.00 86 1012.9
20220524151553 44 39 0.0 5.0 0.00 0.06 0.00 86 1012.9
20220524150058 44 93 2.0 6.0 0.00 0.06 0.00 86 1012.9
20220524144548 44 67 0.0 5.0 0.00 0.06 0.00 86 1012.7
20220524143045 44 77 0.0 4.0 0.00 0.06 0.00 86 1012.6
20220524141543 44 138 0.0 5.0 0.00 0.06 0.00 87 1012.6
20220524140040 44 38 0.0 0.0 0.00 0.06 0.00 88 1012.6
20220524134542 44 325 0.0 0.0 0.00 0.06 0.00 88 1012.8
20220524133037 44 324 0.0 3.0 0.00 0.06 0.00 89 1012.7
20220524131535 43 15 0.0 0.0 0.00 0.06 0.00 89 1012.7
20220524130031 43 57 0.0 0.0 0.00 0.06 0.00 89 1012.8
20220524124527 43 57 0.0 0.0 0.00 0.06 0.00 90 1012.8
20220524123038 43 355 0.0 0.0 0.00 0.06 0.00 90 1012.6
20220524121527 43 346 0.0 0.0 0.00 0.06 0.00 90 1012.5
20220524120030 43 346 0.0 0.0 0.00 0.06 0.00 90 1012.5
20220524114523 43 346 0.0 0.0 0.00 0.06 0.00 90 1012.5
20220524113023 43 346 0.0 0.0 0.00 0.06 0.00 90 1012.4
20220524111522 43 346 0.0 0.0 0.00 0.06 0.00 90 1012.5
20220524110033 43 346 0.0 0.0 0.00 0.06 0.00 90 1012.5
20220524104520 43 344 0.0 1.0 0.00 0.06 0.00 90 1012.6
20220524103020 43 355 0.0 3.0 0.00 0.06 0.00 89 1012.7
20220524101518 43 340 0.0 5.0 0.00 0.06 0.00 89 1013.0
20220524100016 44 339 0.0 4.0 0.00 0.06 0.00 89 1013.0
20220524094515 44 346 0.0 5.0 0.00 0.06 0.00 88 1013.0
20220524093021 44 306 0.0 4.0 0.00 0.06 0.00 88 1013.0
20220524091520 44 311 0.0 2.0 0.00 0.06 0.00 88 1013.1
20220524090017 45 311 0.0 2.0 0.00 0.06 0.00 88 1012.9
20220524084509 45 329 0.0 0.0 0.00 0.06 0.00 87 1013.0
20220524083007 45 348 0.0 0.0 0.00 0.06 0.00 87 1013.1
20220524081507 45 348 0.0 0.0 0.00 0.06 0.00 87 1013.3
20220524080006 45 348 0.0 0.0 0.00 0.06 0.00 87 1013.2
20220524074504 45 25 0.0 0.0 0.00 0.06 0.00 86 1013.4
20220524073003 46 5 0.0 4.0 0.00 0.06 0.00 85 1013.7
20220524071507 46 37 0.0 0.0 0.00 0.06 0.00 84 1014.0
20220524070101 46 58 0.0 3.0 0.00 0.06 0.00 83 1013.6
20220524064603 46 17 0.0 0.0 0.00 0.06 0.00 84 1013.3
20220524063056 45 336 0.0 0.0 0.00 0.06 0.00 84 1013.4
20220524061559 46 333 0.0 0.0 0.00 0.06 0.00 84 1013.5
20220524060107 46 340 0.0 4.0 0.00 0.06 0.00 86 1013.7
20220524054552 46 341 0.0 0.0 0.00 0.06 0.06 85 1013.8
20220524053053 46 346 0.0 0.0 0.00 0.06 0.06 84 1013.7
20220524051552 46 360 0.0 0.0 0.00 0.06 0.06 82 1014.0
20220524050053 46 327 0.0 5.0 0.01 0.06 0.06 82 1013.9
20220524044616 46 331 0.0 6.0 0.02 0.06 0.06 82 1013.9
20220524043049 46 327 0.0 5.0 0.02 0.06 0.06 84 1014.0
20220524041549 46 333 0.0 6.0 0.02 0.06 0.06 83 1014.2
20220524040049 47 295 0.0 2.0 0.02 0.05 0.05 84 1014.2
20220524034610 47 258 0.0 0.0 0.01 0.04 0.04 84 1014.0
20220524033047 47 250 0.0 0.0 0.02 0.04 0.04 82 1013.9
20220524031546 48 229 0.0 3.0 0.04 0.04 0.04 82 1013.7
20220524030101 48 263 0.0 7.0 0.03 0.03 0.03 77 1013.6
20220524024552 48 58 0.0 4.0 0.03 0.03 0.03 71 1013.4
20220524023044 49 21 0.0 8.0 0.02 0.02 0.02 69 1013.3
20220524021555 49 348 0.0 0.0 0.00 0.00 0.00 71 1013.2
20220524020044 50 316 0.0 13.0 0.00 0.00 0.00 65 1013.2
20220524014543 50 20 0.0 3.0 0.00 0.00 0.00 66 1012.9
20220524013043 51 36 2.0 13.0 0.00 0.00 0.00 62 1012.7
20220524011550 52 331 3.0 14.0 0.00 0.00 0.00 62 1012.4
20220524010048 53 40 1.0 16.0 0.00 0.00 0.00 59 1012.2
20220524004540 54 5 12.0 20.0 0.00 0.00 0.00 55 1011.9
20220524003052 55 74 5.0 21.0 0.00 0.00 0.00 52 1011.5
20220524001539 57 355 3.0 13.0 0.00 0.00 0.00 42 1011.4
20220524000045 57 341 0.0 14.0 0.00 0.00 0.00 41 1011.2
20220523234538 57 319 3.0 14.0 0.00 0.00 0.00 41 1011.3
20220523233043 58 5 0.0 13.0 0.00 0.00 0.00 41 1011.2
20220523231536 57 350 4.0 14.0 0.00 0.00 0.00 40 1011.1
20220523230040 57 65 0.0 12.0 0.00 0.00 0.00 41 1011.0
20220523224539 58 355 9.0 17.0 0.00 0.00 0.00 39 1010.8
20220523223037 60 58 9.0 16.0 0.00 0.00 0.00 36 1010.7
20220523221537 60 66 0.0 15.0 0.00 0.00 0.00 36 1010.6
20220523220031 59 46 2.0 6.0 0.00 0.00 0.00 36 1010.7
20220523214530 60 316 2.0 8.0 0.00 0.00 0.00 37 1010.7
20220523213027 59 123 0.0 7.0 0.00 0.00 0.00 40 1010.8
20220523211531 58 22 0.0 8.0 0.00 0.00 0.00 41 1010.6
20220523210025 58 57 3.0 9.0 0.00 0.00 0.00 42 1010.7
20220523204529 57 9 1.0 10.0 0.00 0.00 0.00 45 1010.6
20220523203040 57 85 0.0 5.0 0.00 0.00 0.00 46 1010.9
20220523201527 56 28 0.0 6.0 0.00 0.00 0.00 47 1010.9
20220523200029 57 25 0.0 6.0 0.00 0.00 0.00 44 1010.9
20220523194522 58 39 0.0 6.0 0.00 0.00 0.00 43 1011.0
20220523193021 57 350 0.0 12.0 0.00 0.00 0.00 44 1010.9
20220523191517 56 15 3.0 14.0 0.00 0.00 0.00 46 1010.9
20220523190016 57 332 1.0 13.0 0.00 0.00 0.00 47 1011.1
20220523184513 57 76 2.0 11.0 0.00 0.00 0.00 51 1011.1
20220523183012 56 80 2.0 13.0 0.00 0.00 0.00 54 1011.1
20220523181509 56 33 3.0 11.0 0.00 0.00 0.00 54 1011.2
20220523180007 56 60 3.0 13.0 0.00 0.00 0.00 56 1011.3
20220523174509 56 107 3.0 11.0 0.00 0.00 0.00 54 1011.5
20220523173003 56 45 0.0 11.0 0.00 0.00 0.00 55 1011.6
20220523171607 54 360 0.0 10.0 0.00 0.00 0.00 59 1011.7
20220523170059 54 24 2.0 12.0 0.00 0.00 0.00 59 1011.7
20220523164608 53 46 2.0 12.0 0.00 0.00 0.00 61 1011.7
20220523163102 52 40 4.0 13.0 0.00 0.00 0.00 66 1011.8